Time,TemperatureF,DewpointF,PressureIn,WindDirection,WindDirectionDegrees,WindSpeedMPH,WindSpeedGustMPH,Humidity,HourlyPrecipIn,Conditions,Clouds,dailyrainin,SoftwareType,DateUTC
2013-08-02 00:02:00,66.0,59.0,29.84,North,-999,0.0,-999.0,79,-99.99,,,-99.99,,2013-08-02 05:02:00,
2013-08-02 00:12:00,66.0,59.0,29.83,North,-999,0.0,-999.0,79,-99.99,,,-99.99,,2013-08-02 05:12:00,
2013-08-02 00:22:00,66.0,59.0,29.83,North,-999,0.0,-999.0,79,-99.99,,,-99.99,,2013-08-02 05:22:00,
2013-08-02 00:32:00,65.0,58.0,29.83,North,-999,0.0,-999.0,79,-99.99,,,-99.99,,2013-08-02 05:32:00,
2013-08-02 00:53:00,65.0,58.0,29.83,North,-999,0.0,-999.0,79,-99.99,,,-99.99,,2013-08-02 05:53:00,
2013-08-02 01:02:00,64.0,58.0,29.82,North,-999,0.0,-999.0,80,-99.99,,,-99.99,,2013-08-02 06:02:00,
2013-08-02 01:12:00,63.0,57.0,29.82,North,-999,0.0,-999.0,80,-99.99,,,-99.99,,2013-08-02 06:12:00,
2013-08-02 01:22:00,63.0,57.0,29.82,North,-999,0.0,-999.0,80,-99.99,,,-99.99,,2013-08-02 06:22:00,
2013-08-02 01:33:00,63.0,57.0,29.81,North,-999,0.0,-999.0,80,-99.99,,,-99.99,,2013-08-02 06:33:00,
2013-08-02 01:43:00,63.0,57.0,29.81,North,-999,0.0,-999.0,80,-99.99,,,-99.99,,2013-08-02 06:43:00,
2013-08-02 01:52:00,63.0,57.0,29.81,North,-999,0.0,-999.0,80,-99.99,,,-99.99,,2013-08-02 06:52:00,
2013-08-02 02:02:00,62.0,56.0,29.82,North,-999,0.0,-999.0,81,-99.99,,,-99.99,,2013-08-02 07:02:00,
2013-08-02 02:12:00,62.0,56.0,29.83,North,-999,0.0,-999.0,82,-99.99,,,-99.99,,2013-08-02 07:12:00,
2013-08-02 02:22:00,62.0,56.0,29.83,North,-999,0.0,-999.0,82,-99.99,,,-99.99,,2013-08-02 07:22:00,
2013-08-02 02:33:00,62.0,56.0,29.83,North,-999,0.0,-999.0,82,-99.99,,,-99.99,,2013-08-02 07:33:00,
2013-08-02 02:44:00,62.0,56.0,29.83,North,-999,0.0,-999.0,82,-99.99,,,-99.99,,2013-08-02 07:44:00,
2013-08-02 02:53:00,62.0,56.0,29.83,North,-999,0.0,-999.0,82,-99.99,,,-99.99,,2013-08-02 07:53:00,
2013-08-02 03:02:00,61.0,55.0,29.83,North,-999,0.0,-999.0,82,-99.99,,,-99.99,,2013-08-02 08:02:00,
2013-08-02 03:12:00,61.0,56.0,29.83,North,-999,0.0,-999.0,83,-99.99,,,-99.99,,2013-08-02 08:12:00,
2013-08-02 03:22:00,61.0,56.0,29.83,North,-999,0.0,-999.0,83,-99.99,,,-99.99,,2013-08-02 08:22:00,
2013-08-02 03:33:00,61.0,55.0,29.83,North,-999,0.0,-999.0,81,-99.99,,,-99.99,,2013-08-02 08:33:00,
2013-08-02 03:43:00,62.0,56.0,29.83,North,-999,0.0,-999.0,80,-99.99,,,-99.99,,2013-08-02 08:43:00,
2013-08-02 03:54:00,62.0,56.0,29.83,North,-999,0.0,-999.0,80,-99.99,,,-99.99,,2013-08-02 08:54:00,
2013-08-02 04:02:00,62.0,56.0,29.83,North,-999,0.0,-999.0,80,-99.99,,,-99.99,,2013-08-02 09:02:00,
2013-08-02 04:12:00,61.0,55.0,29.83,North,-999,0.0,-999.0,80,-99.99,,,-99.99,,2013-08-02 09:12:00,
2013-08-02 04:23:00,61.0,55.0,29.83,North,-999,0.0,-999.0,80,-99.99,,,-99.99,,2013-08-02 09:23:00,
2013-08-02 04:33:00,61.0,55.0,29.84,North,-999,0.0,-999.0,81,-99.99,,,-99.99,,2013-08-02 09:33:00,
2013-08-02 04:43:00,60.0,54.0,29.84,North,-999,0.0,-999.0,81,-99.99,,,-99.99,,2013-08-02 09:43:00,
2013-08-02 04:53:00,60.0,54.0,29.84,North,-999,0.0,-999.0,81,-99.99,,,-99.99,,2013-08-02 09:53:00,
2013-08-02 05:03:00,60.0,54.0,29.85,North,-999,0.0,-999.0,82,-99.99,,,-99.99,,2013-08-02 10:03:00,
2013-08-02 05:12:00,60.0,55.0,29.85,North,-999,0.0,-999.0,83,-99.99,,,-99.99,,2013-08-02 10:12:00,
2013-08-02 05:23:00,60.0,55.0,29.85,North,-999,0.0,-999.0,83,-99.99,,,-99.99,,2013-08-02 10:23:00,
2013-08-02 05:33:00,60.0,55.0,29.85,North,-999,0.0,-999.0,83,-99.99,,,-99.99,,2013-08-02 10:33:00,
2013-08-02 05:43:00,59.0,54.0,29.85,North,-999,0.0,-999.0,83,-99.99,,,-99.99,,2013-08-02 10:43:00,
2013-08-02 05:52:00,59.0,54.0,29.85,North,-999,0.0,-999.0,83,-99.99,,,-99.99,,2013-08-02 10:52:00,
2013-08-02 06:02:00,59.0,54.0,29.86,North,-999,0.0,-999.0,84,-99.99,,,-99.99,,2013-08-02 11:02:00,
2013-08-02 06:12:00,59.0,54.0,29.85,North,-999,0.0,-999.0,84,-99.99,,,-99.99,,2013-08-02 11:12:00,
2013-08-02 06:23:00,59.0,54.0,29.85,North,-999,0.0,-999.0,84,-99.99,,,-99.99,,2013-08-02 11:23:00,
2013-08-02 06:32:00,58.0,54.0,29.85,North,-999,0.0,-999.0,85,-99.99,,,-99.99,,2013-08-02 11:32:00,
2013-08-02 06:42:00,58.0,54.0,29.86,North,-999,0.0,-999.0,85,-99.99,,,-99.99,,2013-08-02 11:42:00,
2013-08-02 06:52:00,58.0,54.0,29.86,North,-999,0.0,-999.0,85,-99.99,,,-99.99,,2013-08-02 11:52:00,
2013-08-02 07:02:00,58.0,54.0,29.87,North,-999,0.0,-999.0,85,-99.99,,,-99.99,,2013-08-02 12:02:00,
2013-08-02 07:12:00,58.0,54.0,29.86,North,-999,0.0,-999.0,86,-99.99,,,-99.99,,2013-08-02 12:12:00,
2013-08-02 07:22:00,58.0,54.0,29.86,North,-999,0.0,-999.0,86,-99.99,,,-99.99,,2013-08-02 12:22:00,
2013-08-02 07:33:00,59.0,54.0,29.87,North,-999,0.0,-999.0,85,-99.99,,,-99.99,,2013-08-02 12:33:00,
2013-08-02 07:43:00,59.0,54.0,29.88,North,-999,0.0,-999.0,84,-99.99,,,-99.99,,2013-08-02 12:43:00,
2013-08-02 07:52:00,59.0,54.0,29.88,North,-999,0.0,-999.0,84,-99.99,,,-99.99,,2013-08-02 12:52:00,
2013-08-02 08:02:00,60.0,55.0,29.87,North,-999,0.0,-999.0,84,-99.99,,,-99.99,,2013-08-02 13:02:00,
2013-08-02 08:12:00,61.0,56.0,29.88,North,-999,0.0,-999.0,83,-99.99,,,-99.99,,2013-08-02 13:12:00,
2013-08-02 08:22:00,61.0,56.0,29.88,North,-999,0.0,-999.0,83,-99.99,,,-99.99,,2013-08-02 13:22:00,
2013-08-02 08:33:00,62.0,56.0,29.89,North,-999,0.0,-999.0,82,-99.99,,,-99.99,,2013-08-02 13:33:00,
2013-08-02 08:43:00,63.0,57.0,29.89,North,-999,0.0,-999.0,80,-99.99,,,-99.99,,2013-08-02 13:43:00,
2013-08-02 08:52:00,63.0,57.0,29.89,North,-999,0.0,-999.0,80,-99.99,,,-99.99,,2013-08-02 13:52:00,
2013-08-02 09:02:00,63.0,57.0,29.88,North,-999,0.0,-999.0,80,-99.99,,,-99.99,,2013-08-02 14:02:00,
2013-08-02 09:22:00,64.0,57.0,29.88,North,-999,0.0,-999.0,78,-99.99,,,-99.99,,2013-08-02 14:22:00,
2013-08-02 09:32:00,65.0,58.0,29.88,North,-999,0.0,-999.0,78,-99.99,,,-99.99,,2013-08-02 14:32:00,
2013-08-02 09:43:00,66.0,59.0,29.89,North,-999,0.0,-999.0,78,-99.99,,,-99.99,,2013-08-02 14:43:00,
2013-08-02 09:53:00,66.0,59.0,29.89,North,-999,0.0,-999.0,78,-99.99,,,-99.99,,2013-08-02 14:53:00,
2013-08-02 10:03:00,67.0,58.0,29.89,North,-999,0.0,-999.0,74,-99.99,,,-99.99,,2013-08-02 15:03:00,
2013-08-02 10:12:00,68.0,59.0,29.89,North,-999,0.0,-999.0,72,-99.99,,,-99.99,,2013-08-02 15:12:00,
2013-08-02 10:22:00,68.0,59.0,29.89,North,-999,0.0,-999.0,72,-99.99,,,-99.99,,2013-08-02 15:22:00,
2013-08-02 10:32:00,69.0,58.0,29.89,North,-999,0.0,-999.0,67,-99.99,,,-99.99,,2013-08-02 15:32:00,
2013-08-02 10:43:00,70.0,58.0,29.88,North,-999,0.0,-999.0,66,-99.99,,,-99.99,,2013-08-02 15:43:00,
2013-08-02 10:52:00,70.0,58.0,29.88,North,-999,0.0,-999.0,66,-99.99,,,-99.99,,2013-08-02 15:52:00,
2013-08-02 11:02:00,71.0,58.0,29.89,North,-999,0.0,-999.0,63,-99.99,,,-99.99,,2013-08-02 16:02:00,
2013-08-02 11:12:00,71.0,57.0,29.90,North,-999,0.0,-999.0,61,-99.99,,,-99.99,,2013-08-02 16:12:00,
2013-08-02 11:22:00,71.0,57.0,29.90,North,-999,0.0,-999.0,61,-99.99,,,-99.99,,2013-08-02 16:22:00,
2013-08-02 11:32:00,72.0,59.0,29.90,North,-999,0.0,-999.0,64,-99.99,,,-99.99,,2013-08-02 16:32:00,
2013-08-02 11:43:00,73.0,57.0,29.90,North,-999,0.0,-999.0,58,-99.99,,,-99.99,,2013-08-02 16:43:00,
2013-08-02 11:52:00,73.0,57.0,29.90,North,-999,0.0,-999.0,58,-99.99,,,-99.99,,2013-08-02 16:52:00,
2013-08-02 12:02:00,73.0,57.0,29.90,North,-999,0.0,-999.0,58,-99.99,,,-99.99,,2013-08-02 17:02:00,
2013-08-02 12:12:00,74.0,58.0,29.91,North,-999,0.0,-999.0,57,-99.99,,,-99.99,,2013-08-02 17:12:00,
2013-08-02 12:22:00,74.0,58.0,29.91,North,-999,0.0,-999.0,57,-99.99,,,-99.99,,2013-08-02 17:22:00,
2013-08-02 12:35:00,75.0,58.0,29.90,North,-999,0.0,-999.0,55,-99.99,,,-99.99,,2013-08-02 17:35:00,
2013-08-02 12:43:00,75.0,58.0,29.90,North,-999,0.0,-999.0,55,-99.99,,,-99.99,,2013-08-02 17:43:00,
2013-08-02 12:52:00,75.0,56.0,29.90,North,-999,0.0,-999.0,52,-99.99,,,-99.99,,2013-08-02 17:52:00,
2013-08-02 13:02:00,76.0,59.0,29.90,North,-999,0.0,-999.0,55,-99.99,,,-99.99,,2013-08-02 18:02:00,
2013-08-02 13:12:00,76.0,57.0,29.89,North,-999,0.0,-999.0,51,-99.99,,,-99.99,,2013-08-02 18:12:00,
2013-08-02 13:22:00,76.0,57.0,29.89,North,-999,0.0,-999.0,51,-99.99,,,-99.99,,2013-08-02 18:22:00,
2013-08-02 13:32:00,75.0,55.0,29.90,North,-999,0.0,-999.0,49,-99.99,,,-99.99,,2013-08-02 18:32:00,
2013-08-02 13:43:00,74.0,54.0,29.91,North,-999,0.0,-999.0,49,-99.99,,,-99.99,,2013-08-02 18:43:00,
2013-08-02 13:52:00,74.0,54.0,29.91,North,-999,0.0,-999.0,49,-99.99,,,-99.99,,2013-08-02 18:52:00,
2013-08-02 14:02:00,75.0,55.0,29.91,North,-999,0.0,-999.0,49,-99.99,,,-99.99,,2013-08-02 19:02:00,
2013-08-02 14:12:00,76.0,55.0,29.92,North,-999,0.0,-999.0,49,-99.99,,,-99.99,,2013-08-02 19:12:00,
2013-08-02 14:22:00,76.0,55.0,29.92,North,-999,0.0,-999.0,49,-99.99,,,-99.99,,2013-08-02 19:22:00,
2013-08-02 14:32:00,76.0,54.0,29.92,North,-999,0.0,-999.0,47,-99.99,,,-99.99,,2013-08-02 19:32:00,
2013-08-02 14:43:00,76.0,54.0,29.92,North,-999,0.0,-999.0,47,-99.99,,,-99.99,,2013-08-02 19:43:00,
2013-08-02 14:52:00,76.0,54.0,29.92,North,-999,0.0,-999.0,47,-99.99,,,-99.99,,2013-08-02 19:52:00,
2013-08-02 15:02:00,77.0,56.0,29.91,North,-999,0.0,-999.0,48,-99.99,,,-99.99,,2013-08-02 20:02:00,
2013-08-02 15:12:00,76.0,55.0,29.92,North,-999,0.0,-999.0,48,-99.99,,,-99.99,,2013-08-02 20:12:00,
2013-08-02 15:22:00,76.0,55.0,29.92,North,-999,0.0,-999.0,48,-99.99,,,-99.99,,2013-08-02 20:22:00,
2013-08-02 15:32:00,76.0,55.0,29.92,North,-999,0.0,-999.0,48,-99.99,,,-99.99,,2013-08-02 20:32:00,
2013-08-02 15:43:00,75.0,53.0,29.91,North,-999,0.0,-999.0,47,-99.99,,,-99.99,,2013-08-02 20:43:00,
2013-08-02 15:52:00,75.0,53.0,29.91,North,-999,0.0,-999.0,47,-99.99,,,-99.99,,2013-08-02 20:52:00,
2013-08-02 16:03:00,74.0,54.0,29.92,North,-999,0.0,-999.0,49,-99.99,,,-99.99,,2013-08-02 21:03:00,
2013-08-02 16:12:00,74.0,53.0,29.92,North,-999,0.0,-999.0,48,-99.99,,,-99.99,,2013-08-02 21:12:00,
2013-08-02 16:22:00,74.0,53.0,29.92,North,-999,0.0,-999.0,48,-99.99,,,-99.99,,2013-08-02 21:22:00,
2013-08-02 16:32:00,74.0,52.0,29.92,North,-999,0.0,-999.0,47,-99.99,,,-99.99,,2013-08-02 21:32:00,
2013-08-02 16:43:00,73.0,53.0,29.92,North,-999,0.0,-999.0,50,-99.99,,,-99.99,,2013-08-02 21:43:00,
2013-08-02 16:53:00,73.0,53.0,29.92,North,-999,0.0,-999.0,50,-99.99,,,-99.99,,2013-08-02 21:53:00,
2013-08-02 17:02:00,74.0,57.0,29.91,North,-999,0.0,-999.0,55,-99.99,,,-99.99,,2013-08-02 22:02:00,
2013-08-02 17:12:00,75.0,53.0,29.91,North,-999,0.0,-999.0,47,-99.99,,,-99.99,,2013-08-02 22:12:00,
2013-08-02 17:22:00,75.0,53.0,29.91,North,-999,0.0,-999.0,47,-99.99,,,-99.99,,2013-08-02 22:22:00,
2013-08-02 17:32:00,76.0,54.0,29.92,North,-999,0.0,-999.0,47,-99.99,,,-99.99,,2013-08-02 22:32:00,
2013-08-02 17:43:00,78.0,54.0,29.92,North,-999,0.0,-999.0,44,-99.99,,,-99.99,,2013-08-02 22:43:00,
2013-08-02 17:52:00,78.0,54.0,29.92,North,-999,0.0,-999.0,44,-99.99,,,-99.99,,2013-08-02 22:52:00,
2013-08-02 18:02:00,78.0,54.0,29.92,North,-999,0.0,-999.0,43,-99.99,,,-99.99,,2013-08-02 23:02:00,
2013-08-02 18:12:00,76.0,53.0,29.92,North,-999,0.0,-999.0,45,-99.99,,,-99.99,,2013-08-02 23:12:00,
2013-08-02 18:22:00,76.0,53.0,29.92,North,-999,0.0,-999.0,45,-99.99,,,-99.99,,2013-08-02 23:22:00,
2013-08-02 18:32:00,77.0,54.0,29.92,North,-999,0.0,-999.0,45,-99.99,,,-99.99,,2013-08-02 23:32:00,
2013-08-02 18:43:00,77.0,55.0,29.93,North,-999,0.0,-999.0,47,-99.99,,,-99.99,,2013-08-02 23:43:00,
2013-08-02 18:53:00,77.0,55.0,29.93,North,-999,0.0,-999.0,47,-99.99,,,-99.99,,2013-08-02 23:53:00,
2013-08-02 19:02:00,78.0,56.0,29.93,North,-999,0.0,-999.0,47,-99.99,,,-99.99,,2013-08-03 00:02:00,
2013-08-02 19:12:00,78.0,54.0,29.93,North,-999,0.0,-999.0,44,-99.99,,,-99.99,,2013-08-03 00:12:00,
2013-08-02 19:22:00,78.0,54.0,29.93,North,-999,0.0,-999.0,44,-99.99,,,-99.99,,2013-08-03 00:22:00,
2013-08-02 19:33:00,77.0,53.0,29.93,North,-999,0.0,-999.0,44,-99.99,,,-99.99,,2013-08-03 00:33:00,
2013-08-02 19:43:00,78.0,56.0,29.93,North,-999,0.0,-999.0,47,-99.99,,,-99.99,,2013-08-03 00:43:00,
2013-08-02 19:52:00,78.0,56.0,29.93,North,-999,0.0,-999.0,47,-99.99,,,-99.99,,2013-08-03 00:52:00,
2013-08-02 20:02:00,77.0,54.0,29.94,North,-999,0.0,-999.0,45,-99.99,,,-99.99,,2013-08-03 01:02:00,
2013-08-02 20:12:00,75.0,54.0,29.94,North,-999,0.0,-999.0,48,-99.99,,,-99.99,,2013-08-03 01:12:00,
2013-08-02 20:22:00,75.0,54.0,29.94,North,-999,0.0,-999.0,48,-99.99,,,-99.99,,2013-08-03 01:22:00,
2013-08-02 20:32:00,73.0,54.0,29.94,North,-999,0.0,-999.0,52,-99.99,,,-99.99,,2013-08-03 01:32:00,
2013-08-02 20:42:00,71.0,55.0,29.94,North,-999,0.0,-999.0,58,-99.99,,,-99.99,,2013-08-03 01:42:00,
2013-08-02 20:53:00,71.0,55.0,29.94,North,-999,0.0,-999.0,58,-99.99,,,-99.99,,2013-08-03 01:53:00,
2013-08-02 21:02:00,69.0,56.0,29.95,North,-999,0.0,-999.0,63,-99.99,,,-99.99,,2013-08-03 02:02:00,
2013-08-02 21:22:00,67.0,56.0,29.96,North,-999,0.0,-999.0,67,-99.99,,,-99.99,,2013-08-03 02:22:00,
2013-08-02 21:32:00,65.0,55.0,29.97,North,-999,0.0,-999.0,70,-99.99,,,-99.99,,2013-08-03 02:32:00,
2013-08-02 21:43:00,63.0,54.0,29.97,North,-999,0.0,-999.0,73,-99.99,,,-99.99,,2013-08-03 02:43:00,
2013-08-02 21:52:00,63.0,54.0,29.97,North,-999,0.0,-999.0,73,-99.99,,,-99.99,,2013-08-03 02:52:00,
2013-08-02 22:02:00,62.0,54.0,29.97,North,-999,0.0,-999.0,74,-99.99,,,-99.99,,2013-08-03 03:02:00,
2013-08-02 22:12:00,61.0,53.0,29.98,North,-999,0.0,-999.0,76,-99.99,,,-99.99,,2013-08-03 03:12:00,
2013-08-02 22:22:00,61.0,53.0,29.98,North,-999,0.0,-999.0,76,-99.99,,,-99.99,,2013-08-03 03:22:00,
2013-08-02 22:32:00,61.0,54.0,29.98,North,-999,0.0,-999.0,77,-99.99,,,-99.99,,2013-08-03 03:32:00,
2013-08-02 22:43:00,60.0,54.0,29.99,North,-999,0.0,-999.0,80,-99.99,,,-99.99,,2013-08-03 03:43:00,
2013-08-02 22:53:00,60.0,54.0,29.99,North,-999,0.0,-999.0,80,-99.99,,,-99.99,,2013-08-03 03:53:00,
2013-08-02 23:02:00,59.0,53.0,29.99,North,-999,0.0,-999.0,80,-99.99,,,-99.99,,2013-08-03 04:02:00,
2013-08-02 23:12:00,59.0,53.0,30.00,North,-999,0.0,-999.0,81,-99.99,,,-99.99,,2013-08-03 04:12:00,
2013-08-02 23:22:00,59.0,53.0,30.00,North,-999,0.0,-999.0,81,-99.99,,,-99.99,,2013-08-03 04:22:00,
2013-08-02 23:32:00,59.0,53.0,30.00,North,-999,0.0,-999.0,80,-99.99,,,-99.99,,2013-08-03 04:32:00,
2013-08-02 23:43:00,59.0,54.0,30.00,North,-999,0.0,-999.0,82,-99.99,,,-99.99,,2013-08-03 04:43:00,
2013-08-02 23:53:00,59.0,54.0,30.00,North,-999,0.0,-999.0,82,-99.99,,,-99.99,,2013-08-03 04:53:00,